Moab, UT

12:05 PM MDT on May 27, 2017 (GMT -0600)
Canyonlands

Weather History for KCNY - March, 2013

Change the Weather History Date:

Monday, March 18, 2013

  Actual Average Record
Temperature  
Mean Temperature 43 °F 45 °F  
Max Temperature 60 °F 59 °F 82 °F (2017)
Min Temperature 26 °F 31 °F 21 °F (1952)
Degree Days  
Heating Degree Days 22 20  
Month to date heating degree days 335 402  
Since 1 July heating degree days 5265 4811  
Cooling Degree Days 0 0  
Month to date cooling degree days 0 0  
Year to date cooling degree days 0 0  
Moisture  
Dew Point 9 °F    
Average Humidity 28    
Maximum Humidity 46    
Minimum Humidity 10    
Precipitation  
Precipitation 0.00 in 0.02 in 0.65 in (1943)
Month to date precipitation 0.06 0.45  
Year to date precipitation 0.69 1.61  
Sea Level Pressure  
Sea Level Pressure 29.94 in    
Wind  
Wind Speed 6 mph (West)    
Max Wind Speed 22 mph    
Max Gust Speed 28 mph    
Visibility 10 miles    
Events      
T = Trace of Precipitation, MM = Missing Value Source: NWS Daily Summary

Daily Weather History Graph

Daily Weather History Graph

Search for Another Location

Airport or City:

Trip Planner

Search our weather history database for the weather conditions in past years. The results will help you decide how hot, cold, wet, or windy it might be!

Date:

Astronomy

Mar. 18, 2013 Rise Set
Actual Time 7:25 AM MDT 7:29 PM MDT
Civil Twilight 6:58 AM MDT 7:55 PM MDT
Nautical Twilight 6:27 AM MDT 8:26 PM MDT
Astronomical Twilight 5:56 AM MDT 8:58 PM MDT
Moon 11:30 AM MDT (3/18) 1:28 AM MDT (3/18)
Length of Visible Light 12h 57m
Length of Day
12h 04m
Waxing Crescent, 41% of the Moon is Illuminated
Mar 18
Waxing Crescent
Mar 19
First Quarter
Mar 27
Full
Apr 2
Last Quarter
Apr 10
New

Hourly Weather History & Observations

Time (MDT) Temp. Windchill Dew Point Humidity Pressure Visibility Wind Dir Wind Speed Gust Speed Precip Events Conditions
12:53 AM 43.0 °F 35.7 °F 10.9 °F 27% 29.83 in 10.0 mi WNW 15.0 mph - N/A   Clear
1:53 AM 39.9 °F 32.5 °F 12.0 °F 32% 29.86 in 10.0 mi West 12.7 mph - N/A   Clear
2:53 AM 36.0 °F 31.1 °F 10.9 °F 36% 29.88 in 10.0 mi NE 5.8 mph - N/A   Clear
3:53 AM 33.1 °F 30.0 °F 10.9 °F 40% 29.89 in 10.0 mi SW 3.5 mph - N/A   Clear
4:53 AM 34.0 °F - 10.9 °F 38% 29.90 in 10.0 mi Calm Calm - N/A   Clear
5:53 AM 28.9 °F - 10.0 °F 45% 29.94 in 10.0 mi Calm Calm - N/A   Clear
6:53 AM 32.0 °F - 12.0 °F 44% 29.96 in 10.0 mi Calm Calm - N/A   Clear
7:53 AM 30.0 °F - 10.9 °F 45% 29.99 in 10.0 mi Calm Calm - N/A   Clear
8:53 AM 37.0 °F - 12.9 °F 37% 30.01 in 10.0 mi Calm Calm - N/A   Clear
9:53 AM 46.9 °F - 14.0 °F 27% 30.01 in 10.0 mi Variable 3.5 mph - N/A   Clear
10:53 AM 48.9 °F - 10.0 °F 21% 30.01 in 10.0 mi Calm Calm - N/A   Clear
11:53 AM 50.0 °F - 10.0 °F 20% 30.01 in 10.0 mi Calm Calm - N/A   Clear
12:53 PM 53.1 °F - 9.0 °F 17% 29.99 in 10.0 mi WSW 15.0 mph - N/A   Clear
1:53 PM 55.0 °F - 8.1 °F 15% 29.96 in 10.0 mi WSW 11.5 mph 21.9 mph N/A   Clear
2:53 PM 57.9 °F - 8.1 °F 14% 29.94 in 10.0 mi WNW 12.7 mph 21.9 mph N/A   Clear
3:53 PM 57.9 °F - 7.0 °F 13% 29.91 in 10.0 mi NW 9.2 mph - N/A   Clear
4:53 PM 59.0 °F - 3.9 °F 11% 29.91 in 10.0 mi West 8.1 mph - N/A   Clear
5:53 PM 59.0 °F - 3.0 °F 11% 29.90 in 10.0 mi West 16.1 mph 27.6 mph N/A   Clear
6:53 PM 57.0 °F - 3.0 °F 11% 29.90 in 10.0 mi WNW 15.0 mph - N/A   Clear
7:53 PM 51.1 °F - 5.0 °F 15% 29.94 in 10.0 mi NW 16.1 mph - N/A   Clear
8:53 PM 48.0 °F - 5.0 °F 17% 29.95 in 10.0 mi NW 10.4 mph - N/A   Clear
9:53 PM 46.0 °F 44.8 °F 7.0 °F 20% 29.95 in 10.0 mi Variable 3.5 mph - N/A   Clear
10:53 PM 42.1 °F 38.4 °F 6.1 °F 23% 29.97 in 10.0 mi West 5.8 mph - N/A   Clear
11:53 PM 43.0 °F - 7.0 °F 23% 29.96 in 10.0 mi Calm Calm - N/A   Clear